Findlay, OH

7:20 PM EDT on September 16, 2019 (GMT -0400)
Findlay

Weather History for KFDY - July, 2019

Change the Weather History Date:

Thursday, July 11, 2019

  Actual Average Record
Temperature  
Mean Temperature 81 °F -  
Max Temperature 90 °F 82 °F 93 °F (1989)
Min Temperature 73 °F 63 °F 50 °F (1975)
Cooling Degree Days 16    
Growing Degree Days 31 (Base 50)    
Moisture  
Dew Point 65 °F    
Average Humidity 61    
Maximum Humidity 84    
Minimum Humidity 42    
Precipitation  
Precipitation 0.00 in - - ()
Sea Level Pressure  
Sea Level Pressure 29.82 in    
Wind  
Wind Speed 7 mph (West)    
Max Wind Speed 17 mph    
Max Gust Speed 24 mph    
Visibility 10 miles    
Events      
Averages and records for this station are not official NWS values.
T = Trace of Precipitation, MM = Missing Value Source: NWS Daily Summary

Daily Weather History Graph

Daily Weather History Graph

Search for Another Location

Airport or City:

Astronomy

Jul. 11, 2019 Rise Set
Actual Time 6:12 AM EDT 9:07 PM EDT
Civil Twilight 5:39 AM EDT 9:40 PM EDT
Nautical Twilight 4:57 AM EDT 10:22 PM EDT
Astronomical Twilight 4:09 AM EDT 11:10 PM EDT
Moon 4:18 PM EDT (7/11) 2:23 AM EDT (7/11)
Length of Visible Light 16h 01m
Length of Day
14h 55m
Waxing Gibbous, 74% of the Moon is Illuminated
Jul 11
Waxing Gibbous
Jul 16
Full
Jul 24
Last Quarter
Jul 31
New
Aug 7
First Quarter

Hourly Weather History & Observations

Time (EDT) Temp. Heat Index Dew Point Humidity Pressure Visibility Wind Dir Wind Speed Gust Speed Precip Events Conditions
12:53 AM 75.0 °F - 66.9 °F 76% 29.84 in 10.0 mi WSW 4.6 mph - N/A   Clear
1:53 AM 75.0 °F - 66.9 °F 76% 29.82 in 10.0 mi West 6.9 mph - N/A   Clear
2:53 AM 75.0 °F - 66.9 °F 76% 29.81 in 10.0 mi South 3.5 mph - N/A   Clear
3:53 AM 73.9 °F - 66.9 °F 79% 29.82 in 10.0 mi SW 5.8 mph - N/A   Clear
4:53 AM 73.9 °F - 66.9 °F 79% 29.83 in 10.0 mi West 3.5 mph - N/A   Scattered Clouds
5:53 AM 73.9 °F - 66.9 °F 79% 29.83 in 10.0 mi WSW 8.1 mph - N/A   Partly Cloudy
6:53 AM 73.0 °F - 68.0 °F 84% 29.84 in 10.0 mi West 8.1 mph - N/A   Clear
7:53 AM 73.9 °F - 68.0 °F 82% 29.84 in 10.0 mi West 4.6 mph - N/A   Clear
8:53 AM 78.1 °F - 68.0 °F 71% 29.83 in 10.0 mi WSW 3.5 mph - N/A   Clear
9:53 AM 82.0 °F 84.5 °F 66.9 °F 60% 29.84 in 10.0 mi NW 5.8 mph - N/A   Clear
10:53 AM 82.9 °F 84.6 °F 64.9 °F 54% 29.83 in 10.0 mi Calm Calm - N/A   Clear
11:53 AM 84.9 °F 86.6 °F 64.9 °F 51% 29.83 in 10.0 mi West 6.9 mph - N/A   Mostly Cloudy
12:53 PM 87.1 °F 88.9 °F 64.9 °F 48% 29.83 in 10.0 mi West 8.1 mph - N/A   Overcast
1:53 PM 87.1 °F 88.9 °F 64.9 °F 48% 29.82 in 10.0 mi WSW 12.7 mph - N/A   Mostly Cloudy
2:53 PM 88.0 °F 89.3 °F 64.0 °F 45% 29.80 in 10.0 mi WNW 13.8 mph - N/A   Scattered Clouds
3:53 PM 89.1 °F 90.0 °F 63.0 °F 42% 29.78 in 10.0 mi West 13.8 mph - N/A   Partly Cloudy
4:53 PM 88.0 °F 88.4 °F 62.1 °F 42% 29.77 in 10.0 mi NW 17.3 mph 24.2 mph N/A   Scattered Clouds
5:53 PM 87.1 °F 87.5 °F 62.1 °F 43% 29.77 in 10.0 mi NW 16.1 mph 20.7 mph N/A   Partly Cloudy
6:53 PM 87.1 °F 87.5 °F 62.1 °F 43% 29.79 in 10.0 mi NNW 13.8 mph - N/A   Scattered Clouds
7:53 PM 84.9 °F 85.4 °F 62.1 °F 46% 29.81 in 10.0 mi NNW 11.5 mph - N/A   Partly Cloudy
8:53 PM 82.0 °F 83.1 °F 63.0 °F 52% 29.82 in 10.0 mi NW 8.1 mph - N/A   Clear
9:53 PM 78.1 °F - 64.0 °F 62% 29.83 in 10.0 mi West 5.8 mph - N/A   Clear
10:53 PM 77.0 °F - 64.0 °F 64% 29.84 in 10.0 mi WNW 8.1 mph - N/A   Mostly Cloudy
11:53 PM 75.9 °F - 63.0 °F 64% 29.83 in 10.0 mi NW 10.4 mph - N/A   Clear